Regional Weather Roundup
Issued by NWS Little Rock, AR

Home | Current Version | Previous Version | Text Only | Print | Product List | Glossary On
Versions: 1 2 3 4 5 6 7 8 9 10 11 12 13 14 15 16 17 18 19 20 21 22 23 24 25 26 27 28 29 30 31 32 33 34 35 36 37 38 39 40 41 42 43 44 45 46 47 48 49 50
151
ASUS44 KLZK 252005
RWRLZK

WEATHER ROUNDUP FOR ARKANSAS
NATIONAL WEATHER SERVICE LITTLE ROCK AR
300 PM CDT THU MAY 25 2017

NOTE: "FAIR" INDICATES FEW OR NO CLOUDS BELOW 12,000 FEET WITH NO
SIGNIFICANT WEATHER AND/OR OBSTRUCTIONS TO VISIBILITY.

ARZ001-003-010-029-252100-
NORTHWEST ARKANSAS

CITY           SKY/WX    TMP DP  RH WIND       PRES   REMARKS
FAYETTEVILLE   SUNNY     76  55  48 S12       29.70F
FORT SMITH     SUNNY     83  51  33 VRB6      29.68F
HARRISON       SUNNY     77  54  44 SE8       29.73F
BENTONVILLE    SUNNY     77  54  44 S8G20     29.71F
ROGERS         SUNNY     78  54  43 S16       29.71F
SILOAM SPGS    SUNNY     77  54  44 S14G20    29.69F
SPRINGDALE     SUNNY     77  54  44 S13G20    29.72F
$$

ARZ004-005-016-252100-
NORTH CENTRAL ARKANSAS

CITY           SKY/WX    TMP DP  RH WIND       PRES   REMARKS
BATESVILLE     SUNNY     77  50  38 S7        29.76F
FLIPPIN        SUNNY     75  48  38 S3        29.71F
$$

ARZ040-041-252100-
WEST CENTRAL ARKANSAS

CITY           SKY/WX    TMP DP  RH WIND       PRES   REMARKS
MENA           NOT AVBL
MOUNT IDA      SUNNY     80  52  37 S8        29.73F
$$

ARZ009-017-025-026-028-252100-
NORTHEAST ARKANSAS

CITY           SKY/WX    TMP DP  RH WIND       PRES   REMARKS
JONESBORO      SUNNY     76  51  41 SW10G17   29.77F
WALNUT RIDGE   SUNNY     73  52  46 S8        29.77S
BLYTHEVILLE    SUNNY     75  50  41 W10       29.77F
$$

ARZ022-023-033-042-044-252100-
CENTRAL ARKANSAS

CITY           SKY/WX    TMP DP  RH WIND       PRES   REMARKS
LITTLE ROCK    MOSUNNY   78  54  43 SW12      29.77F
N LITTLE ROCK    N/A     78  55  46 S6        29.77F
JACKSONVILLE   SUNNY     78  57  47 S10       29.76F
CONWAY           N/A     79  54  41 S12G21    29.74F
SEARCY         SUNNY     77  57  50 S10       29.78F
HOT SPRINGS    SUNNY     80  55  42 SW9       29.76F
RUSSELLVILLE   SUNNY     79  52  38 VRB5      29.73F
$$

ARZ036-252100-
EAST ARKANSAS

CITY           SKY/WX    TMP DP  RH WIND       PRES   REMARKS
WEST MEMPHIS   SUNNY     75  53  46 SW12G17   29.78F
$$

ARZ050-053-066-070-073-252100-
SOUTHWEST ARKANSAS

CITY           SKY/WX    TMP DP  RH WIND       PRES   REMARKS
ARKADELPHIA    FAIR      80  59  48 S12G18    29.76F
CAMDEN         SUNNY     82  54  36 SW12      29.77F
TEXARKANA      SUNNY     82  61  48 S15       29.75F
EL DORADO      SUNNY     81  57  43 S9        29.79F
DE QUEEN       SUNNY     83  60  45 S9        29.70F
$$

ARZ056-057-069-252100-
SOUTHEAST ARKANSAS

CITY           SKY/WX    TMP DP  RH WIND       PRES   REMARKS
PINE BLUFF     SUNNY     77  53  43 SW10      29.79F
STUTTGART      SUNNY     77  50  38 S9G16     29.79F
MONTICELLO     SUNNY     78  53  41 SW10      29.80F

$$






USA.gov is the U.S. government's official web portal to all federal, state and local government web resources and services.